Randolph AFB, TX

7:55 AM CDT on August 23, 2017 (GMT -0500)
Randolph Air Force Base

Weather History for KRND - July, 2012

Change the Weather History Date:

Thursday, July 19, 2012

  Actual Average Record
Temperature  
Mean Temperature 81 °F -  
Max Temperature 92 °F 93 °F 100 °F (1996)
Min Temperature 71 °F 72 °F 69 °F (2004)
Cooling Degree Days 16    
Growing Degree Days 31 (Base 50)    
Moisture  
Dew Point 73 °F    
Average Humidity 82    
Maximum Humidity 100    
Minimum Humidity 51    
Precipitation  
Precipitation 0.01 in - - ()
Sea Level Pressure  
Sea Level Pressure 30.07 in    
Wind  
Wind Speed 3 mph (SSE)    
Max Wind Speed 12 mph    
Max Gust Speed 16 mph    
Visibility 10 miles    
Events      
Averages and records for this station are not official NWS values.
T = Trace of Precipitation, MM = Missing Value Source: NWS Daily Summary

Daily Weather History Graph

Daily Weather History Graph

Search for Another Location

Airport or City:

Trip Planner

Search our weather history database for the weather conditions in past years. The results will help you decide how hot, cold, wet, or windy it might be!

Date:

Astronomy

Jul. 19, 2012 Rise Set
Actual Time 6:45 AM CDT 8:32 PM CDT
Civil Twilight 6:19 AM CDT 8:59 PM CDT
Nautical Twilight 5:47 AM CDT 9:31 PM CDT
Astronomical Twilight 5:13 AM CDT 10:04 PM CDT
Moon 7:15 AM CDT (7/19) 8:49 PM CDT (7/19)
Length of Visible Light 14h 40m
Length of Day
13h 47m
New Moon, 0% of the Moon is Illuminated
Jul 19
New Moon
Jul 26
First Quarter
Aug 1
Full
Aug 9
Last Quarter
Aug 17
New

Hourly Weather History & Observations

Time (CDT) Temp. Heat Index Dew Point Humidity Pressure Visibility Wind Dir Wind Speed Gust Speed Precip Events Conditions
12:55 AM 74.1 °F - 73.8 °F 99% 30.04 in 10.0 mi Calm Calm - N/A   Partly Cloudy
1:55 AM 74.3 °F - 73.9 °F 99% 30.04 in 10.0 mi Calm Calm - N/A   Partly Cloudy
2:55 AM 73.6 °F - 73.2 °F 99% 30.05 in 10.0 mi Calm Calm - N/A   Mostly Cloudy
3:55 AM 73.2 °F - 73.0 °F 99% 30.06 in 10.0 mi Calm Calm - N/A   Mostly Cloudy
4:11 AM 73.4 °F - 73.4 °F 100% 30.06 in 10.0 mi Calm Calm - N/A   Mostly Cloudy
4:55 AM 73.4 °F - 73.2 °F 99% 30.06 in 10.0 mi Calm Calm - N/A   Mostly Cloudy
5:40 AM 71.6 °F - 71.6 °F 100% 30.08 in 10.0 mi North 2.3 mph - N/A   Mostly Cloudy
5:55 AM 72.1 °F - 71.8 °F 99% 30.07 in 10.0 mi North 3.5 mph - N/A   Scattered Clouds
6:55 AM 72.0 °F - 71.6 °F 99% 30.08 in 10.0 mi Calm Calm - N/A   Mostly Cloudy
7:17 AM 73.4 °F - 71.6 °F 94% 30.08 in 10.0 mi Calm Calm - N/A   Overcast
7:42 AM 73.4 °F - 73.4 °F 100% 30.08 in 10.0 mi Calm Calm - N/A   Scattered Clouds
7:55 AM 74.1 °F - 73.8 °F 99% 30.09 in 10.0 mi Calm Calm - 0.01 in   Scattered Clouds
8:55 AM 78.4 °F - 76.8 °F 95% 30.11 in 10.0 mi Variable 5.8 mph - N/A   Scattered Clouds
9:55 AM 81.7 °F 88.7 °F 75.9 °F 83% 30.12 in 10.0 mi South 9.2 mph - N/A   Partly Cloudy
10:55 AM 84.0 °F 91.2 °F 74.1 °F 72% 30.12 in 10.0 mi SSW 9.2 mph - N/A   Clear
11:55 AM 86.0 °F 94.2 °F 74.1 °F 68% 30.12 in 10.0 mi SSW 5.8 mph - N/A   Scattered Clouds
12:55 PM 88.3 °F 96.4 °F 73.2 °F 61% 30.11 in 10.0 mi SW 8.1 mph 16.1 mph N/A   Scattered Clouds
1:55 PM 90.5 °F 96.0 °F 70.2 °F 51% 30.09 in 10.0 mi Variable 3.5 mph - N/A   Scattered Clouds
2:55 PM 91.6 °F 98.8 °F 71.8 °F 52% 30.07 in 10.0 mi SSW 6.9 mph - N/A   Scattered Clouds
3:55 PM 90.7 °F 98.5 °F 72.7 °F 55% 30.04 in 10.0 mi ESE 8.1 mph - N/A   Scattered Clouds
4:55 PM 89.6 °F 96.6 °F 72.1 °F 56% 30.04 in 10.0 mi SE 10.4 mph - N/A   Overcast
5:55 PM 89.1 °F 98.0 °F 74.1 °F 61% 30.02 in 10.0 mi SE 10.4 mph - N/A   Mostly Cloudy
6:55 PM 87.3 °F 93.2 °F 71.4 °F 59% 30.02 in 10.0 mi SSE 11.5 mph - N/A   Clear
7:55 PM 84.6 °F 91.0 °F 72.9 °F 68% 30.02 in 10.0 mi SSE 6.9 mph - N/A   Clear
8:55 PM 79.9 °F - 72.9 °F 79% 30.04 in 10.0 mi SE 5.8 mph - N/A   Clear
9:55 PM 79.0 °F - 73.2 °F 82% 30.04 in 10.0 mi SSE 5.8 mph - N/A   Clear
10:55 PM 79.9 °F - 73.0 °F 80% 30.05 in 10.0 mi South 5.8 mph - N/A   Clear
11:55 PM 77.2 °F - 72.7 °F 86% 30.08 in 10.0 mi SSE 4.6 mph - N/A   Clear